Regional Weather Roundup
Issued by NWS

Home | Current Version | Previous Version | Text Only | Print | Product List | Glossary Off
Versions: 1 2 3 4 5 6 7 8 9 10 11 12 13 14 15 16 17 18 19 20 21 22 23 24 25 26 27 28 29 30 31 32 33 34 35 36 37 38 39 40 41 42 43 44 45 46 47 48 49 50

000
ASUS43 KLOT 042208
RWRIL

ILLINOIS REGIONAL WEATHER ROUNDUP
NATIONAL WEATHER SERVICE CHICAGO/ROMEOVILLE IL
500 PM CDT WED MAY 04 2016

NOTE: "FAIR" INDICATES FEW OR NO CLOUDS BELOW 12,000 FEET WITH NO
SIGNIFICANT WEATHER AND/OR OBSTRUCTIONS TO VISIBILITY.

* THESE STATIONS ARE NOT UNDER NWS QUALITY CONTROL. THEY ALSO MAY NOT
  REPORT WEATHER SUCH AS PRECIPITATION OR FOG.

ILZ001-002-007-009-015-016-024-042300-
NORTHWEST ILLINOIS

CITY           SKY/WX    TMP DP  RH WIND       PRES   REMARKS
MOLINE         MOSUNNY   64  33  31 N17G23    29.83F
STERLING*      CLOUDY    59  36  41 N10       29.83S
SAVANNA*       PTSUNNY   62  32  31 NW16      29.83S
$$

ILZ003-004-008-010-011-017-018-042300-
NORTH CENTRAL ILLINOIS

CITY           SKY/WX    TMP DP  RH WIND       PRES   REMARKS
ROCKFORD       CLOUDY    58  35  42 N14       29.83S
FREEPORT*      PTSUNNY   58  32  38 N12G17    29.83S
ROCHELLE*      CLOUDY    56  38  52 N12G21    29.82S
DE KALB*       CLOUDY    55  40  59 NW12G17   29.82S
$$

ILZ005-006-012>014-019>023-042300-
NORTHEAST ILLINOIS

CITY           SKY/WX    TMP DP  RH WIND       PRES   REMARKS
CHICAGO-OHARE  CLOUDY    50  38  63 NE7       29.80S
CHICAGO-MIDWAY CLOUDY    49  36  61 N9        29.82R
AURORA         CLOUDY    55  40  56 N17       29.81S
LANSING*       CLOUDY    46  37  71 N10       29.83R
JOLIET*        CLOUDY    54  38  55 N12G18    29.82R
WAUKEGAN       CLOUDY    48  39  71 NE9       29.81R
DUPAGE AIRPORT CLOUDY    53  37  54 N15       29.80R
KANKAKEE*      CLOUDY    51  37  58 N12       29.82R
WHEELING       CLOUDY    50  38  63 VRB6      29.82R
MORRIS*        CLOUDY    55  40  57 N7G16     29.81R
ROMEOVILLE*    CLOUDY    51  37  58 N12       29.81S
NORTHERLY ISL    N/A     44  36  73 N14         N/A
NORTHERLY ISL    N/A     44  36  73 N14         N/A
$$

LMZ740>746-042300-
SOUTHERN LAKE MICHIGAN

STATION/POSITION SKY/WX   TEMP    WIND        PRES    VSBY  WAVE
                          AIR SEA DIR/SP/G                  HT/PER
                          (F)     (DEG/KT/KT) (MB)    (MI)  (FT/S)
SOUTHERN BUOY              42 40   10/ 23/ 29 1008.1R         8/ 8
WILMETTE HARBOR            43 44   20/ 10/ 14   N/A           5/ 7
HARRISON CRIB              44     350/ 17/ 21   N/A
BURNHAM HARBOR             45     330/ 10/ 16   N/A
CALUMET HARBOR             44     330/ 10/ 18 1009.2R
BURNS HARBOR               44     360/ 17/ 21 1009.5S
MICHIGAN CITY              43     330/ 23/ 27   N/A
ST. JOSEPH                 42 47                N/A          10/ 7
$$

ILZ025>027-034>036-040-047-049-050-058-095>099-042300-
WEST-CENTRAL ILLINOIS

CITY           SKY/WX    TMP DP  RH WIND       PRES   REMARKS
QUINCY         MOSUNNY   62  34  35 NW17G31   29.88F
GALESBURG*     PTSUNNY   60  35  39 N18G24    29.85S
MACOMB*        PTSUNNY   63  33  32 NW18G32   29.88S
JACKSONVILLE*  PTSUNNY   62  34  35 N20G26    29.85S
PITTSFIELD*    MOSUNNY   64  38  39 NW18G26   29.88S
$$

ILZ028>032-037-038-041>044-048-051>054-059>061-042300-
CENTRAL ILLINOIS

CITY           SKY/WX    TMP DP  RH WIND       PRES   REMARKS
PONTIAC        PTSUNNY   58  43  58 N16       29.83S
BLOOMINGTON    PTSUNNY   56  41  57 NW15      29.84R
DECATUR        CLOUDY    57  40  52 NW16G24   29.84R
PEORIA         PTSUNNY   62  35  36 NW12G22   29.84S
LACON*         PTSUNNY   58  37  44 N13       29.82S
LINCOLN*       CLOUDY    58  40  52 N7        29.85R
SPRINGFIELD    CLOUDY    61  39  44 N14G24    29.85S
TAYLORVILLE    CLOUDY    58  40  51 NW18G26   29.85R
$$

ILZ033-039-045-046-055>057-062-063-042300-
EAST-CENTRAL ILLINOIS

CITY           SKY/WX    TMP DP  RH WIND       PRES   REMARKS
CHAMPAIGN      CLOUDY    55  41  59 NW21G29   29.82R
RANTOUL*       PTSUNNY   57  42  58 N14G23    29.82R
MATTOON        CLOUDY    55  39  54 N22G32    29.81R
PARIS*         CLOUDY    54  42  63 N12       29.81R
$$

ILZ079-100>102-042300-
SOUTHWEST ILLINOIS

CITY           SKY/WX    TMP DP  RH WIND       PRES   REMARKS
ALTON          PTSUNNY   63  37  39 N17G25    29.85R
BELLEVILLE     SUNNY     65  38  37 NW15G26   29.82R
CAHOKIA*       PTSUNNY   66  38  35 NW20G29   29.84R
SPARTA*        MOSUNNY   64  42  45 N13G22    29.83R
$$

ILZ064>066-069>071-074>076-080>082-084>086-088>090-092>094-042300-
SOUTH-CENTRAL ILLINOIS

CITY           SKY/WX    TMP DP  RH WIND       PRES   REMARKS
CARBONDALE     SUNNY     64  42  44 N17G25    29.81R
CAIRO*         SUNNY     69  41  36 N17G26    29.78S
EFFINGHAM*     CLOUDY    59  42  52 NW16G23   29.83R
MARION         PTSUNNY   64  41  42 N14G24    29.81R
MT. VERNON     PTSUNNY   63  43  48 N8        29.82R
CENTRALIA*     CLOUDY    64  44  47 NW21G28   29.81R
SALEM*         CLOUDY    62  42  47 NW21      29.82R
METROPOLIS*    MOSUNNY   68  45  42 N16       29.79R
$$

ILZ067-068-072-073-078-083-087-091-042300-
SOUTHEAST ILLINOIS

CITY           SKY/WX    TMP DP  RH WIND       PRES   REMARKS
LAWRENCEVILLE  CLOUDY    59  42  53 N21G32    29.78R
FLORA*         PTSUNNY   62  41  46 NW16G29   29.81R
FAIRFIELD*     PTSUNNY   61  46  56 NW9G20    29.79F
HARRISBURG*    PTSUNNY   63  42  47 N15G21    29.80R
ROBINSON*      PTSUNNY   57  39  51 NW20G26   29.79R
CARMI*         CLOUDY    60  44  55 NW15G23   29.79S
$$

ABBREVIATIONS USED IN REMARKS
   TC - TEMPERATURE IN CELSIUS
  WCI - WIND CHILL INDEX
   HX - HEAT INDEX
  VSB - VISIBILITY
$$





USA.gov is the U.S. government's official web portal to all federal, state and local government web resources and services.